Location: Newark
(16.3678°N, 77.8722°E)
Time: 04:33:41
(UTC+00:00)

Tiros 1 - Pass Details

Date: 11 December 2019
Orbit: 630 x 664 km, 48.4° (Epoch: 24 January)

Event Time Altitude Azimuth Distance (km) Brightness Sun altitude
Rises 08:07:48 0° 324° (NW) 2,906 10.3 45.4°
Reaches altitude 10° 08:10:10 10° 328° (NNW) 1,998 9.6 45.1°
Maximum altitude 08:14:40 57° 47° (NE) 738 7.7 44.5°
Drops below altitude 10° 08:19:12 10° 126° (SE) 2,000 9.8 44.0°
Sets 08:21:33 0° 131° (SE) 2,910 10.6 43.7°
